Private Wetterstation Wechselburg
Wetterdaten: Montag, 12.12.2016
Datum Zeit Temp. +2m Bodentemp. Temp.+5cm Temp. Wind Windchill X Diff Temp. Feuchte +2m Feuchte +5cm Sonnenschein Luftdruck Regen Wind Richtung Richtung Sonnenschein Taupunkt Windchill Windben
12.12.2016 00:00 5,5 C 6,1 C 5,3 C 5,1 C 3,6 C 0,0 C 84 % 89 % 0 % 1017,9 hPa 0,0 l/m 7,9 km/h (2 Bft) W-NW 292 0 min 3,0 C 1,5 C 8,2 km/h (2 Bft)
12.12.2016 00:05 5,5 C 6,1 C 5,3 C 4,9 C 3,6 C 0,0 C 84 % 89 % 0 % 1017,9 hPa 0,0 l/m 7,9 km/h (2 Bft) S-SW 202 0 min 3,0 C 1,5 C 8,7 km/h (2 Bft)
12.12.2016 00:10 4,5 C 6,1 C 5,3 C 4,3 C 3,9 C 0,0 C 85 % 88 % 0 % 1017,9 hPa 0,0 l/m 6,9 km/h (2 Bft) SW 225 0 min 2,2 C 2,2 C 6,1 km/h (2 Bft)
12.12.2016 00:15 4,5 C 6,1 C 5,3 C 4,3 C 3,9 C 0,0 C 85 % 88 % 0 % 1017,9 hPa 0,0 l/m 6,8 km/h (2 Bft) SW 225 0 min 2,2 C 2,2 C 8,7 km/h (2 Bft)
12.12.2016 00:20 4,4 C 6,1 C 5,2 C 4,2 C 3,9 C 0,0 C 86 % 88 % 0 % 1018,2 hPa 0,0 l/m 6,6 km/h (2 Bft) SW 225 0 min 2,3 C 2,3 C 8,5 km/h (2 Bft)
12.12.2016 00:25 4,4 C 6,1 C 5,2 C 4,3 C 4,2 C 0,0 C 86 % 87 % 0 % 1018,2 hPa 0,0 l/m 5,8 km/h (2 Bft) W-SW 247 0 min 2,3 C 2,9 C 10,5 km/h (2 Bft)
12.12.2016 00:30 4,4 C 6,1 C 5,2 C 4,3 C 4,1 C 0,0 C 86 % 87 % 0 % 1018,2 hPa 0,0 l/m 6,3 km/h (2 Bft) W-SW 247 0 min 2,3 C 2,6 C 9,2 km/h (2 Bft)
12.12.2016 00:35 4,4 C 6,1 C 5,2 C 4,2 C 3,9 C 0,0 C 86 % 86 % 0 % 1018,2 hPa 0,7 l/m 6,9 km/h (2 Bft) SW 225 0 min 2,3 C 2,2 C 12,9 km/h (3 Bft)
12.12.2016 00:40 4,5 C 6,1 C 5,2 C 4,2 C 3,7 C 0,0 C 86 % 86 % 0 % 1018,0 hPa 0,0 l/m 7,4 km/h (2 Bft) W-SW 247 0 min 2,4 C 1,8 C 11,6 km/h (2 Bft)
12.12.2016 00:45 4,4 C 6,1 C 5,2 C 4,2 C 3,7 C 0,0 C 86 % 86 % 0 % 1018,0 hPa 0,0 l/m 7,4 km/h (2 Bft) W-SW 247 0 min 2,3 C 1,8 C 15,0 km/h (3 Bft)
12.12.2016 00:50 4,4 C 6,1 C 5,3 C 4,2 C 3,8 C 0,0 C 86 % 86 % 0 % 1018,0 hPa 0,0 l/m 7,4 km/h (2 Bft) SW 225 0 min 2,3 C 1,9 C 12,2 km/h (2 Bft)
12.12.2016 00:55 4,4 C 6,1 C 5,2 C 4,2 C 3,9 C 0,0 C 86 % 85 % 0 % 1018,0 hPa 0,0 l/m 7,1 km/h (2 Bft) S-SO 157 0 min 2,3 C 2,1 C 15,8 km/h (3 Bft)
12.12.2016 01:00 4,4 C 6,1 C 5,2 C 4,4 C 3,8 C 0,0 C 86 % 85 % 0 % 1018,0 hPa 0,0 l/m 7,7 km/h (2 Bft) W 270 0 min 2,3 C 1,8 C 9,2 km/h (2 Bft)
12.12.2016 01:05 4,4 C 6,0 C 5,3 C 4,2 C 3,9 C 0,0 C 86 % 84 % 0 % 1018,0 hPa 0,0 l/m 7,1 km/h (2 Bft) W-SW 247 0 min 2,3 C 2,1 C 5,8 km/h (2 Bft)
12.12.2016 01:10 4,4 C 6,1 C 5,3 C 4,2 C 3,9 C 0,0 C 86 % 84 % 0 % 1018,0 hPa 0,0 l/m 7,2 km/h (2 Bft) W-SW 247 0 min 2,3 C 2,1 C 7,2 km/h (2 Bft)
12.12.2016 01:15 4,4 C 6,0 C 5,3 C 4,2 C 3,8 C 0,0 C 86 % 84 % 0 % 1018,0 hPa 0,0 l/m 7,4 km/h (2 Bft) SW 225 0 min 2,3 C 1,9 C 10,5 km/h (2 Bft)
12.12.2016 01:20 4,4 C 6,0 C 5,3 C 4,2 C 3,8 C 0,0 C 86 % 84 % 0 % 1018,2 hPa 0,0 l/m 7,4 km/h (2 Bft) W-SW 247 0 min 2,3 C 1,9 C 12,6 km/h (3 Bft)
12.12.2016 01:25 4,4 C 6,0 C 5,3 C 4,2 C 3,8 C 0,0 C 86 % 84 % 0 % 1018,2 hPa 0,0 l/m 7,6 km/h (2 Bft) SW 225 0 min 2,3 C 1,8 C 5,6 km/h (1 Bft)
12.12.2016 01:30 4,4 C 6,0 C 5,3 C 4,2 C 3,8 C 0,0 C 86 % 84 % 0 % 1018,2 hPa 0,0 l/m 7,7 km/h (2 Bft) S-SW 202 0 min 2,3 C 1,8 C 12,7 km/h (3 Bft)
12.12.2016 01:35 4,4 C 6,0 C 5,2 C 4,2 C 3,8 C 0,0 C 86 % 83 % 0 % 1018,2 hPa 0,0 l/m 7,4 km/h (2 Bft) SW 225 0 min 2,3 C 1,9 C 8,4 km/h (2 Bft)
12.12.2016 01:40 4,5 C 6,0 C 5,2 C 4,3 C 3,9 C 0,0 C 86 % 83 % 0 % 1017,7 hPa 0,0 l/m 7,1 km/h (2 Bft) W-SW 247 0 min 2,4 C 2,1 C 6,6 km/h (2 Bft)
12.12.2016 01:45 4,4 C 6,0 C 5,2 C 4,3 C 4,1 C 0,0 C 86 % 83 % 0 % 1017,7 hPa 0,0 l/m 6,4 km/h (2 Bft) W-SW 247 0 min 2,3 C 2,6 C 5,3 km/h (1 Bft)
12.12.2016 01:50 4,5 C 6,0 C 5,2 C 4,3 C 3,9 C 0,0 C 86 % 82 % 0 % 1017,7 hPa 0,0 l/m 7,6 km/h (2 Bft) S 180 0 min 2,4 C 2,0 C 12,2 km/h (2 Bft)
12.12.2016 01:55 4,4 C 6,0 C 5,2 C 4,2 C 3,9 C 0,0 C 86 % 82 % 0 % 1017,7 hPa 0,0 l/m 7,7 km/h (2 Bft) W-SW 247 0 min 2,3 C 1,9 C 7,4 km/h (2 Bft)
12.12.2016 02:00 4,4 C 6,0 C 5,2 C 4,4 C 3,8 C 0,0 C 86 % 82 % 0 % 1017,9 hPa 0,0 l/m 7,9 km/h (2 Bft) W-SW 247 0 min 2,3 C 1,8 C 11,4 km/h (2 Bft)
12.12.2016 02:05 4,5 C 6,0 C 5,2 C 4,5 C 3,9 C 0,0 C 86 % 82 % 0 % 1017,9 hPa 0,0 l/m 7,7 km/h (2 Bft) W-SW 247 0 min 2,4 C 1,9 C 9,8 km/h (2 Bft)
12.12.2016 02:10 4,4 C 6,0 C 5,2 C 4,2 C 3,9 C 0,0 C 86 % 82 % 0 % 1017,9 hPa 0,0 l/m 7,7 km/h (2 Bft) W-SW 247 0 min 2,3 C 1,9 C 10,6 km/h (2 Bft)
12.12.2016 02:15 4,4 C 6,0 C 5,2 C 4,3 C 4,1 C 0,0 C 86 % 82 % 0 % 1017,9 hPa 0,0 l/m 6,9 km/h (2 Bft) W 270 0 min 2,3 C 2,4 C 10,0 km/h (2 Bft)
12.12.2016 02:20 4,4 C 6,0 C 5,2 C 4,5 C 3,9 C 0,1 C 86 % 82 % 0 % 1017,8 hPa 0,0 l/m 7,7 km/h (2 Bft) W-SW 247 0 min 2,3 C 1,9 C 13,2 km/h (3 Bft)
12.12.2016 02:25 4,4 C 6,0 C 5,3 C 4,3 C 4,1 C 0,0 C 86 % 82 % 0 % 1017,8 hPa 0,0 l/m 7,1 km/h (2 Bft) SW 225 0 min 2,3 C 2,3 C 7,4 km/h (2 Bft)
12.12.2016 02:30 4,5 C 6,0 C 5,2 C 4,4 C 4,2 C 0,0 C 86 % 81 % 0 % 1017,8 hPa 0,0 l/m 6,6 km/h (2 Bft) W-SW 247 0 min 2,4 C 2,6 C 9,3 km/h (2 Bft)
12.12.2016 02:35 4,5 C 6,0 C 5,3 C 4,4 C 4,1 C 0,0 C 86 % 81 % 0 % 1017,8 hPa 0,0 l/m 6,9 km/h (2 Bft) SW 225 0 min 2,4 C 2,4 C 8,5 km/h (2 Bft)
12.12.2016 02:40 4,5 C 6,0 C 5,3 C 4,4 C 4,1 C 0,0 C 86 % 81 % 0 % 1018,2 hPa 0,0 l/m 7,2 km/h (2 Bft) W-SW 247 0 min 2,4 C 2,3 C 10,6 km/h (2 Bft)
12.12.2016 02:45 4,5 C 6,0 C 5,3 C 4,4 C 4,2 C 0,0 C 86 % 81 % 0 % 1018,2 hPa 0,0 l/m 7,1 km/h (2 Bft) SW 225 0 min 2,4 C 2,5 C 11,3 km/h (2 Bft)
12.12.2016 02:50 4,5 C 6,0 C 5,3 C 4,6 C 4,0 C 0,1 C 86 % 81 % 0 % 1018,2 hPa 0,0 l/m 7,7 km/h (2 Bft) W 270 0 min 2,4 C 2,0 C 8,5 km/h (2 Bft)
12.12.2016 02:55 4,6 C 6,0 C 5,3 C 4,6 C 3,9 C 0,0 C 86 % 81 % 0 % 1018,2 hPa 0,0 l/m 8,0 km/h (2 Bft) W 270 0 min 2,5 C 1,8 C 9,8 km/h (2 Bft)
12.12.2016 03:00 4,6 C 6,0 C 5,3 C 4,5 C 4,2 C 0,0 C 86 % 81 % 0 % 1018,0 hPa 0,0 l/m 7,2 km/h (2 Bft) SW 225 0 min 2,5 C 2,4 C 4,0 km/h (1 Bft)
12.12.2016 03:05 4,6 C 6,0 C 5,3 C 4,6 C 4,5 C 0,0 C 86 % 81 % 0 % 1018,0 hPa 0,0 l/m 6,1 km/h (2 Bft) W-SW 247 0 min 2,5 C 3,1 C 6,6 km/h (2 Bft)
12.12.2016 03:10 4,6 C 6,0 C 5,4 C 4,5 C 4,4 C 0,0 C 86 % 81 % 0 % 1018,0 hPa 0,0 l/m 6,4 km/h (2 Bft) NW 315 0 min 2,5 C 2,9 C 8,4 km/h (2 Bft)
12.12.2016 03:15 4,5 C 6,0 C 5,3 C 4,4 C 4,3 C 0,0 C 86 % 81 % 0 % 1018,0 hPa 0,0 l/m 6,6 km/h (2 Bft) S 180 0 min 2,4 C 2,7 C 5,5 km/h (1 Bft)
12.12.2016 03:20 4,6 C 6,0 C 5,3 C 4,5 C 4,3 C 0,0 C 86 % 81 % 0 % 1017,9 hPa 0,0 l/m 6,6 km/h (2 Bft) S-SW 202 0 min 2,5 C 2,7 C 8,9 km/h (2 Bft)
12.12.2016 03:25 4,7 C 6,0 C 5,4 C 4,5 C 4,1 C 0,0 C 86 % 81 % 0 % 1017,9 hPa 0,0 l/m 7,6 km/h (2 Bft) W-SW 247 0 min 2,6 C 2,2 C 17,1 km/h (3 Bft)
12.12.2016 03:30 4,7 C 6,0 C 5,4 C 4,7 C 3,9 C 0,0 C 86 % 81 % 0 % 1017,9 hPa 0,0 l/m 8,0 km/h (2 Bft) W 270 0 min 2,6 C 1,8 C 7,7 km/h (2 Bft)
12.12.2016 03:35 4,6 C 6,0 C 5,4 C 4,4 C 4,1 C 0,0 C 86 % 81 % 0 % 1017,9 hPa 0,0 l/m 7,6 km/h (2 Bft) W-SW 247 0 min 2,5 C 2,2 C 11,9 km/h (2 Bft)
12.12.2016 03:40 4,6 C 6,0 C 5,3 C 4,6 C 4,0 C 0,0 C 86 % 81 % 0 % 1018,1 hPa 0,0 l/m 7,9 km/h (2 Bft) W 270 0 min 2,5 C 2,0 C 9,0 km/h (2 Bft)
12.12.2016 03:45 4,7 C 6,0 C 5,5 C 4,6 C 3,8 C 0,0 C 86 % 81 % 0 % 1018,1 hPa 0,0 l/m 8,7 km/h (2 Bft) W-SW 247 0 min 2,6 C 1,5 C 9,3 km/h (2 Bft)
12.12.2016 03:50 4,7 C 6,0 C 5,4 C 4,6 C 4,0 C 0,0 C 86 % 81 % 0 % 1018,1 hPa 0,0 l/m 7,9 km/h (2 Bft) SW 225 0 min 2,6 C 2,0 C 10,0 km/h (2 Bft)
12.12.2016 03:55 4,7 C 6,0 C 5,4 C 4,5 C 4,2 C 0,0 C 86 % 81 % 0 % 1018,1 hPa 0,0 l/m 7,2 km/h (2 Bft) W-SW 247 0 min 2,6 C 2,4 C 16,7 km/h (3 Bft)
12.12.2016 04:00 4,8 C 6,0 C 5,5 C 4,7 C 3,9 C 0,0 C 86 % 81 % 0 % 1018,3 hPa 0,0 l/m 8,2 km/h (2 Bft) W-SW 247 0 min 2,7 C 1,8 C 9,2 km/h (2 Bft)
12.12.2016 04:05 4,8 C 6,0 C 5,5 C 4,5 C 3,9 C 0,0 C 86 % 81 % 0 % 1018,3 hPa 0,0 l/m 8,4 km/h (2 Bft) SW 225 0 min 2,7 C 1,7 C 5,1 km/h (1 Bft)
12.12.2016 04:10 4,8 C 6,0 C 5,5 C 4,7 C 4,2 C 0,0 C 85 % 81 % 0 % 1018,3 hPa 0,0 l/m 7,7 km/h (2 Bft) W-SW 247 0 min 2,5 C 2,3 C 8,9 km/h (2 Bft)
12.12.2016 04:15 4,8 C 6,0 C 5,5 C 4,8 C 4,3 C 0,0 C 85 % 81 % 0 % 1018,3 hPa 0,0 l/m 8,0 km/h (2 Bft) SW 225 0 min 2,5 C 2,3 C 13,2 km/h (3 Bft)
12.12.2016 04:20 4,8 C 6,0 C 5,4 C 4,8 C 4,2 C 0,0 C 85 % 81 % 0 % 1018,1 hPa 0,0 l/m 8,7 km/h (2 Bft) W-SW 247 0 min 2,5 C 2,0 C 7,1 km/h (2 Bft)
12.12.2016 04:25 4,9 C 6,0 C 5,5 C 4,9 C 4,3 C 0,0 C 85 % 81 % 0 % 1018,1 hPa 0,0 l/m 8,7 km/h (2 Bft) W-SW 247 0 min 2,6 C 2,1 C 6,6 km/h (2 Bft)
12.12.2016 04:30 4,9 C 6,0 C 5,5 C 4,7 C 4,3 C 0,0 C 85 % 82 % 0 % 1018,1 hPa 0,0 l/m 8,5 km/h (2 Bft) SW 225 0 min 2,6 C 2,2 C 7,9 km/h (2 Bft)
12.12.2016 04:35 5,0 C 6,0 C 5,5 C 5,0 C 4,4 C 0,0 C 85 % 82 % 0 % 1018,1 hPa 0,0 l/m 7,9 km/h (2 Bft) SW 225 0 min 2,7 C 2,5 C 6,4 km/h (2 Bft)
12.12.2016 04:40 5,1 C 6,0 C 5,5 C 5,0 C 4,3 C 0,0 C 85 % 82 % 0 % 1017,9 hPa 0,0 l/m 7,7 km/h (2 Bft) SW 225 0 min 2,8 C 2,4 C 10,3 km/h (2 Bft)
12.12.2016 04:45 5,1 C 6,0 C 5,5 C 4,8 C 4,3 C 0,0 C 85 % 82 % 0 % 1017,9 hPa 0,0 l/m 8,0 km/h (2 Bft) W-SW 247 0 min 2,8 C 2,3 C 6,8 km/h (2 Bft)
12.12.2016 04:50 5,1 C 6,0 C 5,4 C 5,0 C 4,0 C 0,0 C 85 % 82 % 0 % 1017,9 hPa 0,0 l/m 8,2 km/h (2 Bft) SW 225 0 min 2,8 C 1,9 C 14,5 km/h (3 Bft)
12.12.2016 04:55 5,1 C 6,0 C 5,5 C 4,9 C 3,7 C 0,0 C 85 % 83 % 0 % 1017,9 hPa 0,0 l/m 9,0 km/h (2 Bft) SW 225 0 min 2,8 C 1,3 C 13,8 km/h (3 Bft)
12.12.2016 05:00 4,8 C 6,0 C 5,4 C 4,7 C 3,8 C 0,0 C 85 % 83 % 0 % 1018,0 hPa 0,7 l/m 8,9 km/h (2 Bft) S 180 0 min 2,5 C 1,5 C 6,6 km/h (2 Bft)
12.12.2016 05:05 4,8 C 6,0 C 5,4 C 4,5 C 3,8 C 0,0 C 85 % 83 % 0 % 1018,0 hPa 0,0 l/m 8,0 km/h (2 Bft) W-SW 247 0 min 2,5 C 1,7 C 11,6 km/h (2 Bft)
12.12.2016 05:10 4,7 C 6,0 C 5,3 C 4,4 C 3,9 C 0,0 C 85 % 83 % 0 % 1018,0 hPa 0,0 l/m 7,6 km/h (2 Bft) SW 225 0 min 2,4 C 2,0 C 9,5 km/h (2 Bft)
12.12.2016 05:15 4,7 C 6,0 C 5,3 C 4,6 C 3,8 C 0,0 C 86 % 83 % 0 % 1018,0 hPa 0,0 l/m 7,9 km/h (2 Bft) W-SW 247 0 min 2,6 C 1,8 C 11,7 km/h (2 Bft)
12.12.2016 05:20 4,6 C 6,0 C 5,3 C 4,3 C 3,8 C 0,0 C 86 % 82 % 0 % 1018,2 hPa 0,0 l/m 7,9 km/h (2 Bft) SW 225 0 min 2,5 C 1,8 C 9,2 km/h (2 Bft)
12.12.2016 05:25 4,5 C 6,0 C 5,3 C 4,3 C 3,8 C 0,0 C 86 % 82 % 0 % 1018,2 hPa 0,0 l/m 8,2 km/h (2 Bft) W-SW 247 0 min 2,4 C 1,7 C 7,7 km/h (2 Bft)
12.12.2016 05:30 4,5 C 6,0 C 5,2 C 4,5 C 3,7 C 0,0 C 86 % 82 % 0 % 1018,2 hPa 0,0 l/m 8,7 km/h (2 Bft) W-SW 247 0 min 2,4 C 1,4 C 6,9 km/h (2 Bft)
12.12.2016 05:35 4,4 C 6,0 C 5,2 C 4,2 C 3,7 C 0,0 C 86 % 82 % 0 % 1018,2 hPa 0,0 l/m 8,5 km/h (2 Bft) S-SW 202 0 min 2,3 C 1,5 C 12,2 km/h (2 Bft)
12.12.2016 05:40 4,4 C 6,0 C 5,3 C 4,2 C 3,7 C 0,0 C 86 % 82 % 0 % 1018,4 hPa 0,0 l/m 8,5 km/h (2 Bft) W-SW 247 0 min 2,3 C 1,5 C 8,2 km/h (2 Bft)
12.12.2016 05:45 4,4 C 6,0 C 5,3 C 4,2 C 3,7 C 0,0 C 86 % 82 % 0 % 1018,4 hPa 0,0 l/m 8,7 km/h (2 Bft) W-SW 247 0 min 2,3 C 1,4 C 9,2 km/h (2 Bft)
12.12.2016 05:50 4,4 C 6,0 C 5,3 C 4,4 C 3,8 C 0,0 C 86 % 81 % 0 % 1018,4 hPa 0,0 l/m 8,0 km/h (2 Bft) W-SW 247 0 min 2,3 C 1,7 C 8,9 km/h (2 Bft)
12.12.2016 05:55 4,4 C 6,0 C 5,3 C 4,4 C 3,7 C 0,0 C 87 % 81 % 0 % 1018,4 hPa 0,0 l/m 9,0 km/h (2 Bft) W-SW 247 0 min 2,4 C 1,3 C 18,8 km/h (3 Bft)
12.12.2016 06:00 4,4 C 6,0 C 5,3 C 4,2 C 3,7 C 0,0 C 87 % 81 % 0 % 1018,2 hPa 0,0 l/m 9,0 km/h (2 Bft) W-SW 247 0 min 2,4 C 1,3 C 11,7 km/h (2 Bft)
12.12.2016 06:05 4,4 C 6,0 C 5,3 C 4,2 C 3,7 C 0,0 C 87 % 81 % 0 % 1018,2 hPa 0,0 l/m 9,0 km/h (2 Bft) W-SW 247 0 min 2,4 C 1,3 C 19,8 km/h (3 Bft)
12.12.2016 06:10 4,4 C 6,0 C 5,3 C 4,4 C 3,8 C 0,0 C 87 % 81 % 0 % 1018,2 hPa 0,0 l/m 8,5 km/h (2 Bft) SW 225 0 min 2,4 C 1,6 C 8,4 km/h (2 Bft)
12.12.2016 06:15 4,4 C 6,0 C 5,3 C 4,3 C 4,1 C 0,0 C 87 % 81 % 0 % 1018,2 hPa 0,0 l/m 7,6 km/h (2 Bft) W-SW 247 0 min 2,4 C 2,2 C 6,3 km/h (2 Bft)
12.12.2016 06:20 4,4 C 6,0 C 5,3 C 4,3 C 4,1 C 0,0 C 87 % 81 % 0 % 1018,2 hPa 0,0 l/m 7,4 km/h (2 Bft) SW 225 0 min 2,4 C 2,2 C 7,6 km/h (2 Bft)
12.12.2016 06:25 4,4 C 6,0 C 5,3 C 4,4 C 4,3 C 0,0 C 87 % 81 % 0 % 1018,2 hPa 0,0 l/m 6,8 km/h (2 Bft) S 180 0 min 2,4 C 2,7 C 7,4 km/h (2 Bft)
12.12.2016 06:30 4,4 C 6,0 C 5,4 C 4,3 C 4,2 C 0,0 C 87 % 80 % 0 % 1018,2 hPa 0,0 l/m 7,2 km/h (2 Bft) SW 225 0 min 2,4 C 2,4 C 12,1 km/h (2 Bft)
12.12.2016 06:35 4,5 C 6,0 C 5,5 C 4,6 C 3,8 C 0,1 C 87 % 80 % 0 % 1018,2 hPa 0,0 l/m 8,7 km/h (2 Bft) W-SW 247 0 min 2,5 C 1,5 C 11,7 km/h (2 Bft)
12.12.2016 06:40 4,5 C 6,0 C 5,5 C 4,5 C 3,6 C 0,0 C 87 % 80 % 0 % 1018,7 hPa 0,0 l/m 9,5 km/h (2 Bft) W-SW 247 0 min 2,5 C 1,1 C 14,3 km/h (3 Bft)
12.12.2016 06:45 4,5 C 6,0 C 5,4 C 4,5 C 3,8 C 0,0 C 88 % 79 % 0 % 1018,7 hPa 0,0 l/m 9,0 km/h (2 Bft) SW 225 0 min 2,7 C 1,5 C 8,7 km/h (2 Bft)
12.12.2016 06:50 4,6 C 6,0 C 5,5 C 4,6 C 3,9 C 0,0 C 88 % 79 % 0 % 1018,7 hPa 0,0 l/m 8,5 km/h (2 Bft) W-SW 247 0 min 2,8 C 1,7 C 9,8 km/h (2 Bft)
12.12.2016 06:55 4,6 C 6,0 C 5,5 C 4,6 C 4,0 C 0,0 C 88 % 79 % 0 % 1018,7 hPa 0,0 l/m 8,2 km/h (2 Bft) W-SW 247 0 min 2,8 C 1,9 C 9,3 km/h (2 Bft)
12.12.2016 07:00 4,7 C 6,0 C 5,5 C 4,5 C 4,2 C 0,0 C 88 % 79 % 0 % 1018,9 hPa 0,0 l/m 7,4 km/h (2 Bft) SW 225 0 min 2,9 C 2,4 C 7,9 km/h (2 Bft)
12.12.2016 07:05 4,7 C 6,0 C 5,5 C 4,6 C 4,3 C 0,0 C 88 % 79 % 0 % 1018,9 hPa 0,0 l/m 6,8 km/h (2 Bft) W-SW 247 0 min 2,9 C 2,7 C 7,1 km/h (2 Bft)
12.12.2016 07:10 4,7 C 6,0 C 5,5 C 4,6 C 4,5 C 0,0 C 88 % 79 % 0 % 1018,9 hPa 0,0 l/m 6,3 km/h (2 Bft) SW 225 0 min 2,9 C 3,0 C 7,4 km/h (2 Bft)
12.12.2016 07:15 4,7 C 6,0 C 5,6 C 4,6 C 4,3 C 0,0 C 88 % 78 % 0 % 1018,9 hPa 0,0 l/m 6,9 km/h (2 Bft) SW 225 0 min 2,9 C 2,6 C 5,8 km/h (2 Bft)
12.12.2016 07:20 4,7 C 6,0 C 5,6 C 4,6 C 4,3 C 0,0 C 88 % 78 % 0 % 1019,4 hPa 0,0 l/m 6,8 km/h (2 Bft) W-SW 247 0 min 2,9 C 2,7 C 6,3 km/h (2 Bft)
12.12.2016 07:25 4,7 C 6,0 C 5,5 C 4,6 C 4,5 C 0,0 C 88 % 78 % 0 % 1019,4 hPa 0,0 l/m 6,8 km/h (2 Bft) W-SW 247 0 min 2,9 C 2,9 C 12,1 km/h (2 Bft)
12.12.2016 07:30 4,6 C 6,0 C 5,6 C 4,5 C 4,3 C 0,0 C 88 % 78 % 0 % 1019,4 hPa 0,0 l/m 7,2 km/h (2 Bft) W 270 0 min 2,8 C 2,5 C 4,5 km/h (1 Bft)
12.12.2016 07:35 4,6 C 6,0 C 5,6 C 4,6 C 4,6 C 0,0 C 88 % 78 % 0 % 1019,4 hPa 0,7 l/m 6,3 km/h (2 Bft) W-SW 247 0 min 2,8 C 3,2 C 12,9 km/h (3 Bft)
12.12.2016 07:40 4,7 C 6,1 C 5,6 C 5,1 C 5,1 C 0,4 C 88 % 78 % 0 % 1019,4 hPa 0,0 l/m 5,1 km/h (1 Bft) W-SW 247 0 min 2,9 C 4,2 C 5,5 km/h (1 Bft)
12.12.2016 07:45 4,7 C 6,1 C 5,6 C 4,7 C 4,6 C 0,0 C 88 % 78 % 0 % 1019,4 hPa 0,0 l/m 6,3 km/h (2 Bft) W 270 0 min 2,9 C 3,2 C 10,9 km/h (2 Bft)
12.12.2016 07:50 4,7 C 6,0 C 5,6 C 4,6 C 4,4 C 0,0 C 88 % 78 % 0 % 1019,4 hPa 0,0 l/m 7,1 km/h (2 Bft) SW 225 0 min 2,9 C 2,7 C 9,7 km/h (2 Bft)
12.12.2016 07:55 4,8 C 6,1 C 5,7 C 4,9 C 4,3 C 0,1 C 88 % 77 % 0 % 1019,4 hPa 0,0 l/m 8,2 km/h (2 Bft) SW 225 0 min 3,0 C 2,3 C 9,0 km/h (2 Bft)
12.12.2016 08:00 4,8 C 6,1 C 5,6 C 4,6 C 4,3 C 0,0 C 88 % 77 % 0 % 1019,7 hPa 0,0 l/m 8,0 km/h (2 Bft) W 270 0 min 3,0 C 2,3 C 10,1 km/h (2 Bft)
12.12.2016 08:05 4,8 C 6,1 C 5,7 C 4,7 C 4,4 C 0,0 C 88 % 77 % 0 % 1019,7 hPa 0,0 l/m 7,6 km/h (2 Bft) W-SW 247 0 min 3,0 C 2,5 C 9,5 km/h (2 Bft)
12.12.2016 08:10 4,9 C 6,1 C 5,8 C 4,9 C 4,3 C 0,0 C 89 % 77 % 0 % 1019,7 hPa 0,0 l/m 8,0 km/h (2 Bft) W-SW 247 0 min 3,2 C 2,3 C 17,7 km/h (3 Bft)
12.12.2016 08:15 4,9 C 6,1 C 5,8 C 4,7 C 4,3 C 0,0 C 89 % 77 % 0 % 1019,7 hPa 0,0 l/m 7,9 km/h (2 Bft) W-SW 247 0 min 3,2 C 2,3 C 8,2 km/h (2 Bft)
12.12.2016 08:20 4,9 C 6,1 C 5,8 C 4,8 C 4,6 C 0,0 C 89 % 76 % 0 % 1020,0 hPa 0,0 l/m 7,1 km/h (2 Bft) W 270 0 min 3,2 C 2,9 C 8,0 km/h (2 Bft)
12.12.2016 08:25 4,8 C 6,1 C 5,9 C 4,7 C 4,6 C 0,0 C 88 % 76 % 0 % 1020,0 hPa 0,0 l/m 7,1 km/h (2 Bft) W 270 0 min 3,0 C 2,9 C 11,4 km/h (2 Bft)
12.12.2016 08:30 4,8 C 6,1 C 5,9 C 4,7 C 4,6 C 0,0 C 88 % 76 % 0 % 1020,0 hPa 0,0 l/m 6,8 km/h (2 Bft) S-SW 202 0 min 3,0 C 3,0 C 8,5 km/h (2 Bft)
12.12.2016 08:35 4,9 C 6,1 C 5,9 C 4,9 C 4,8 C 0,0 C 89 % 76 % 0 % 1020,0 hPa 0,0 l/m 6,6 km/h (2 Bft) W-SW 247 0 min 3,2 C 3,3 C 9,5 km/h (2 Bft)
12.12.2016 08:40 4,8 C 6,1 C 5,9 C 4,8 C 4,8 C 0,0 C 88 % 76 % 0 % 1020,4 hPa 0,0 l/m 6,4 km/h (2 Bft) S 180 0 min 3,0 C 3,4 C 4,7 km/h (1 Bft)
12.12.2016 08:45 4,8 C 6,1 C 5,9 C 4,9 C 4,9 C 0,1 C 88 % 76 % 3 % 1020,4 hPa 0,0 l/m 6,1 km/h (2 Bft) W 270 0 min 3,0 C 3,6 C 6,9 km/h (2 Bft)
12.12.2016 08:50 4,9 C 6,1 C 5,9 C 4,9 C 4,9 C 0,0 C 89 % 76 % 0 % 1020,4 hPa 0,0 l/m 6,1 km/h (2 Bft) W-SW 247 0 min 3,2 C 3,6 C 7,2 km/h (2 Bft)
12.12.2016 08:55 4,8 C 6,1 C 5,9 C 5,1 C 5,1 C 0,3 C 88 % 76 % 8 % 1020,4 hPa 0,0 l/m 5,6 km/h (1 Bft) W-SW 247 0 min 3,0 C 4,0 C 5,0 km/h (1 Bft)
12.12.2016 09:00 4,9 C 6,1 C 5,9 C 5,4 C 5,4 C 0,5 C 89 % 76 % 13 % 1020,8 hPa 0,0 l/m 4,7 km/h (1 Bft) W-SW 247 0 min 3,2 C 4,7 C 6,9 km/h (2 Bft)
12.12.2016 09:05 4,9 C 6,1 C 5,9 C 5,6 C 5,6 C 0,7 C 89 % 76 % 18 % 1020,8 hPa 0,0 l/m 4,3 km/h (1 Bft) W-SW 247 0 min 3,2 C 5,6 C 3,1 km/h (1 Bft)
12.12.2016 09:10 4,9 C 6,1 C 5,9 C 5,4 C 5,4 C 0,5 C 89 % 76 % 13 % 1020,8 hPa 0,0 l/m 4,8 km/h (1 Bft) W 270 0 min 3,2 C 4,6 C 9,2 km/h (2 Bft)
12.12.2016 09:15 4,9 C 6,1 C 6,0 C 5,7 C 5,7 C 0,8 C 89 % 76 % 21 % 1020,8 hPa 0,0 l/m 4,5 km/h (1 Bft) W-NW 292 0 min 3,2 C 5,7 C 6,0 km/h (2 Bft)
12.12.2016 09:20 5,1 C 6,1 C 6,1 C 5,5 C 5,5 C 0,4 C 89 % 76 % 11 % 1020,8 hPa 0,0 l/m 4,8 km/h (1 Bft) W-SW 247 0 min 3,4 C 4,7 C 9,2 km/h (2 Bft)
12.12.2016 09:25 5,1 C 6,1 C 6,0 C 5,3 C 5,3 C 0,2 C 89 % 75 % 5 % 1020,8 hPa 0,0 l/m 5,6 km/h (1 Bft) W-SW 247 0 min 3,4 C 4,2 C 6,3 km/h (2 Bft)
12.12.2016 09:30 5,1 C 6,1 C 6,0 C 5,4 C 5,4 C 0,3 C 89 % 75 % 8 % 1020,8 hPa 0,0 l/m 5,1 km/h (1 Bft) W-SW 247 0 min 3,4 C 4,5 C 5,8 km/h (2 Bft)
12.12.2016 09:35 5,0 C 6,1 C 6,0 C 5,8 C 5,8 C 0,8 C 89 % 75 % 21 % 1020,8 hPa 0,7 l/m 4,2 km/h (1 Bft) W-SW 247 0 min 3,3 C 5,8 C 8,0 km/h (2 Bft)
12.12.2016 09:40 5,1 C 6,1 C 6,1 C 6,2 C 6,2 C 1,1 C 89 % 75 % 29 % 1021,8 hPa 0,0 l/m 3,5 km/h (1 Bft) SW 225 0 min 3,4 C 6,2 C 0,0 km/h (0 Bft)
12.12.2016 09:45 5,0 C 6,1 C 6,1 C 6,3 C 6,3 C 1,3 C 89 % 75 % 34 % 1021,8 hPa 0,0 l/m 2,4 km/h (1 Bft) SW 225 0 min 3,3 C 6,3 C 2,3 km/h (1 Bft)
12.12.2016 09:50 5,0 C 6,1 C 6,1 C 6,3 C 6,3 C 1,3 C 89 % 75 % 34 % 1021,8 hPa 0,0 l/m 1,9 km/h (1 Bft) W-SW 247 0 min 3,3 C 6,3 C 3,4 km/h (1 Bft)
12.12.2016 09:55 5,1 C 6,1 C 6,3 C 6,4 C 6,4 C 1,3 C 89 % 75 % 34 % 1021,8 hPa 0,0 l/m 2,9 km/h (1 Bft) W-SW 247 0 min 3,4 C 6,4 C 3,1 km/h (1 Bft)
12.12.2016 10:00 5,1 C 6,1 C 6,3 C 6,5 C 6,5 C 1,4 C 89 % 75 % 37 % 1022,1 hPa 0,0 l/m 3,1 km/h (1 Bft) SW 225 0 min 3,4 C 6,5 C 0,0 km/h (0 Bft)
12.12.2016 10:05 5,2 C 6,1 C 6,4 C 6,6 C 6,6 C 1,4 C 89 % 75 % 37 % 1022,1 hPa 0,0 l/m 2,7 km/h (1 Bft) SW 225 0 min 3,5 C 6,6 C 4,7 km/h (1 Bft)
12.12.2016 10:10 5,2 C 6,1 C 6,3 C 6,6 C 6,6 C 1,4 C 89 % 75 % 37 % 1022,1 hPa 0,0 l/m 2,6 km/h (1 Bft) S 180 0 min 3,5 C 6,6 C 2,6 km/h (1 Bft)
12.12.2016 10:15 5,3 C 6,1 C 6,4 C 6,6 C 6,6 C 1,3 C 89 % 75 % 34 % 1022,1 hPa 0,0 l/m 2,6 km/h (1 Bft) S 180 0 min 3,6 C 6,6 C 3,2 km/h (1 Bft)
12.12.2016 10:20 5,2 C 6,1 C 6,4 C 6,6 C 6,6 C 1,4 C 89 % 75 % 37 % 1022,3 hPa 0,0 l/m 2,6 km/h (1 Bft) SW 225 0 min 3,5 C 6,6 C 2,7 km/h (1 Bft)
12.12.2016 10:25 5,2 C 6,1 C 6,4 C 6,7 C 6,7 C 1,5 C 89 % 75 % 39 % 1022,3 hPa 0,0 l/m 3,1 km/h (1 Bft) W-SW 247 0 min 3,5 C 6,7 C 5,3 km/h (1 Bft)
12.12.2016 10:30 5,2 C 6,1 C 6,4 C 6,7 C 6,7 C 1,5 C 89 % 75 % 39 % 1022,3 hPa 0,0 l/m 3,1 km/h (1 Bft) W-SW 247 0 min 3,5 C 6,7 C 2,3 km/h (1 Bft)
12.12.2016 10:35 5,2 C 6,1 C 6,4 C 6,7 C 6,7 C 1,5 C 89 % 75 % 39 % 1022,3 hPa 0,0 l/m 1,9 km/h (1 Bft) SW 225 0 min 3,5 C 6,7 C 0,0 km/h (0 Bft)
12.12.2016 10:40 5,3 C 6,1 C 6,5 C 6,8 C 6,8 C 1,5 C 89 % 75 % 39 % 1022,4 hPa 0,0 l/m 1,6 km/h (1 Bft) SW 225 0 min 3,6 C 6,8 C 1,6 km/h (1 Bft)
12.12.2016 10:45 5,3 C 6,1 C 6,4 C 6,8 C 6,8 C 1,5 C 89 % 75 % 39 % 1022,4 hPa 0,7 l/m 2,1 km/h (1 Bft) W 270 0 min 3,6 C 6,8 C 3,5 km/h (1 Bft)
12.12.2016 10:50 5,3 C 6,1 C 6,5 C 6,8 C 6,8 C 1,5 C 89 % 75 % 39 % 1022,4 hPa 0,0 l/m 2,3 km/h (1 Bft) SW 225 0 min 3,6 C 6,8 C 2,3 km/h (1 Bft)
12.12.2016 10:55 5,3 C 6,1 C 6,5 C 6,8 C 6,8 C 1,5 C 89 % 75 % 39 % 1022,4 hPa 0,0 l/m 3,1 km/h (1 Bft) W-NW 292 0 min 3,6 C 6,8 C 5,6 km/h (1 Bft)
12.12.2016 11:00 5,3 C 6,1 C 6,7 C 6,8 C 6,8 C 1,5 C 89 % 75 % 39 % 1022,9 hPa 0,0 l/m 2,9 km/h (1 Bft) S-SO 157 0 min 3,6 C 6,8 C 0,0 km/h (0 Bft)
12.12.2016 11:05 5,4 C 6,1 C 6,5 C 6,8 C 6,8 C 1,4 C 89 % 75 % 37 % 1022,9 hPa 0,0 l/m 1,9 km/h (1 Bft) W 270 0 min 3,7 C 6,8 C 0,0 km/h (0 Bft)
12.12.2016 11:10 5,3 C 6,1 C 6,5 C 6,8 C 6,8 C 1,5 C 89 % 75 % 39 % 1022,9 hPa 0,0 l/m 1,0 km/h (0 Bft) N-NW 337 0 min 3,6 C 6,8 C 0,0 km/h (0 Bft)
12.12.2016 11:15 5,2 C 6,2 C 6,3 C 6,5 C 6,5 C 1,3 C 89 % 75 % 34 % 1022,9 hPa 0,0 l/m 1,8 km/h (1 Bft) N-NW 337 0 min 3,5 C 6,5 C 3,9 km/h (1 Bft)
12.12.2016 11:20 5,1 C 6,1 C 6,3 C 6,4 C 6,4 C 1,3 C 89 % 75 % 34 % 1022,8 hPa 0,0 l/m 3,2 km/h (1 Bft) N-NW 337 0 min 3,4 C 6,4 C 6,1 km/h (2 Bft)
12.12.2016 11:25 4,9 C 6,2 C 6,1 C 6,2 C 6,2 C 1,3 C 89 % 75 % 34 % 1022,8 hPa 0,0 l/m 2,7 km/h (1 Bft) NW 315 0 min 3,2 C 6,2 C 1,8 km/h (1 Bft)
12.12.2016 11:30 4,9 C 6,2 C 6,1 C 6,2 C 6,2 C 1,3 C 89 % 75 % 34 % 1022,8 hPa 0,0 l/m 3,1 km/h (1 Bft) N-NW 337 0 min 3,2 C 6,2 C 6,6 km/h (2 Bft)
12.12.2016 11:35 4,8 C 6,2 C 6,1 C 6,2 C 6,2 C 1,4 C 88 % 75 % 37 % 1022,8 hPa 0,0 l/m 3,2 km/h (1 Bft) N-NW 337 0 min 3,0 C 6,2 C 6,4 km/h (2 Bft)
12.12.2016 11:40 4,8 C 6,2 C 6,1 C 6,1 C 6,1 C 1,3 C 88 % 75 % 34 % 1023,1 hPa 0,0 l/m 3,5 km/h (1 Bft) S 180 0 min 3,0 C 6,1 C 2,9 km/h (1 Bft)
12.12.2016 11:45 4,8 C 6,2 C 6,3 C 6,3 C 6,3 C 1,5 C 88 % 75 % 39 % 1023,1 hPa 0,7 l/m 2,3 km/h (1 Bft) NO 45 0 min 3,0 C 6,3 C 2,4 km/h (1 Bft)
12.12.2016 11:50 4,9 C 6,2 C 6,2 C 6,4 C 6,4 C 1,5 C 89 % 75 % 39 % 1023,1 hPa 0,0 l/m 1,4 km/h (1 Bft) N-NW 337 0 min 3,2 C 6,4 C 3,5 km/h (1 Bft)
12.12.2016 11:55 4,9 C 6,2 C 6,3 C 6,5 C 6,5 C 1,6 C 89 % 75 % 42 % 1023,1 hPa 0,0 l/m 1,6 km/h (1 Bft) N-NO 22 0 min 3,2 C 6,5 C 2,3 km/h (1 Bft)
12.12.2016 12:00 5,0 C 6,2 C 6,3 C 6,6 C 6,6 C 1,6 C 89 % 75 % 42 % 1023,3 hPa 0,0 l/m 1,6 km/h (1 Bft) N 360 0 min 3,3 C 6,6 C 2,7 km/h (1 Bft)
12.12.2016 12:05 5,1 C 6,2 C 6,4 C 6,7 C 6,7 C 1,6 C 89 % 75 % 42 % 1023,3 hPa 0,0 l/m 1,4 km/h (1 Bft) S 180 0 min 3,4 C 6,7 C 0,0 km/h (0 Bft)
12.12.2016 12:10 5,1 C 6,2 C 6,5 C 6,8 C 6,8 C 1,7 C 89 % 75 % 45 % 1023,3 hPa 0,0 l/m 0,8 km/h (0 Bft) NW 315 0 min 3,4 C 6,8 C 0,0 km/h (0 Bft)
12.12.2016 12:15 5,1 C 6,2 C 6,5 C 6,8 C 6,8 C 1,7 C 89 % 75 % 45 % 1023,3 hPa 0,0 l/m 0,5 km/h (0 Bft) S-SW 202 0 min 3,4 C 6,8 C 0,0 km/h (0 Bft)
12.12.2016 12:20 5,2 C 6,2 C 6,4 C 6,8 C 6,8 C 1,6 C 89 % 75 % 42 % 1023,8 hPa 0,0 l/m 0,5 km/h (0 Bft) NO 45 0 min 3,5 C 6,8 C 0,0 km/h (0 Bft)
12.12.2016 12:25 5,2 C 6,2 C 6,7 C 7,0 C 7,0 C 1,8 C 89 % 75 % 47 % 1023,8 hPa 0,0 l/m 0,3 km/h (0 Bft) NO 45 0 min 3,5 C 7,0 C 0,0 km/h (0 Bft)
12.12.2016 12:30 5,2 C 6,2 C 6,8 C 7,2 C 7,2 C 2,0 C 89 % 75 % 53 % 1023,8 hPa 0,0 l/m 0,3 km/h (0 Bft) S-SW 202 0 min 3,5 C 7,2 C 0,0 km/h (0 Bft)
12.12.2016 12:35 5,4 C 6,2 C 6,8 C 7,4 C 7,4 C 2,0 C 89 % 75 % 53 % 1023,8 hPa 0,0 l/m 0,8 km/h (0 Bft) N-NO 22 0 min 3,7 C 7,4 C 2,6 km/h (1 Bft)
12.12.2016 12:40 5,3 C 6,2 C 6,9 C 7,4 C 7,4 C 2,1 C 89 % 75 % 55 % 1023,5 hPa 0,0 l/m 1,4 km/h (1 Bft) O-NO 67 0 min 3,6 C 7,4 C 2,7 km/h (1 Bft)
12.12.2016 12:45 5,2 C 6,2 C 6,7 C 7,2 C 7,2 C 2,0 C 89 % 75 % 53 % 1023,5 hPa 0,0 l/m 1,9 km/h (1 Bft) SW 225 0 min 3,5 C 7,2 C 1,8 km/h (1 Bft)
12.12.2016 12:50 5,2 C 6,2 C 6,5 C 7,0 C 7,0 C 1,8 C 89 % 75 % 47 % 1023,5 hPa 0,0 l/m 1,9 km/h (1 Bft) NO 45 0 min 3,5 C 7,0 C 1,8 km/h (1 Bft)
12.12.2016 12:55 5,2 C 6,2 C 6,4 C 6,8 C 6,8 C 1,6 C 89 % 75 % 42 % 1023,5 hPa 0,0 l/m 1,9 km/h (1 Bft) SW 225 0 min 3,5 C 6,8 C 2,9 km/h (1 Bft)
12.12.2016 13:00 5,2 C 6,2 C 6,5 C 6,8 C 6,8 C 1,6 C 89 % 75 % 42 % 1023,5 hPa 0,0 l/m 1,9 km/h (1 Bft) N-NO 22 0 min 3,5 C 6,8 C 2,7 km/h (1 Bft)
12.12.2016 13:05 5,2 C 6,2 C 6,7 C 6,9 C 6,9 C 1,7 C 89 % 75 % 45 % 1023,5 hPa 0,0 l/m 2,4 km/h (1 Bft) NW 315 0 min 3,5 C 6,9 C 4,8 km/h (1 Bft)
12.12.2016 13:10 5,2 C 6,2 C 6,6 C 7,0 C 7,0 C 1,8 C 89 % 75 % 47 % 1023,5 hPa 0,0 l/m 2,6 km/h (1 Bft) N-NW 337 0 min 3,5 C 7,0 C 4,8 km/h (1 Bft)
12.12.2016 13:15 5,2 C 6,2 C 6,7 C 7,2 C 7,2 C 2,0 C 89 % 75 % 53 % 1023,5 hPa 0,0 l/m 1,4 km/h (1 Bft) W-SW 247 0 min 3,5 C 7,2 C 0,0 km/h (0 Bft)
12.12.2016 13:20 5,3 C 6,2 C 6,6 C 7,2 C 7,2 C 1,9 C 89 % 75 % 50 % 1023,9 hPa 0,0 l/m 0,8 km/h (0 Bft) NO 45 0 min 3,6 C 7,2 C 0,0 km/h (0 Bft)
12.12.2016 13:25 5,2 C 6,2 C 6,5 C 7,0 C 7,0 C 1,8 C 89 % 75 % 47 % 1023,9 hPa 0,0 l/m 0,6 km/h (0 Bft) S 180 0 min 3,5 C 7,0 C 5,6 km/h (1 Bft)
12.12.2016 13:30 5,2 C 6,2 C 6,4 C 6,8 C 6,8 C 1,6 C 89 % 75 % 42 % 1023,9 hPa 0,0 l/m 1,4 km/h (1 Bft) NW 315 0 min 3,5 C 6,8 C 5,1 km/h (1 Bft)
12.12.2016 13:35 5,1 C 6,2 C 6,4 C 6,5 C 6,5 C 1,4 C 89 % 75 % 37 % 1023,9 hPa 0,0 l/m 2,4 km/h (1 Bft) N-NW 337 0 min 3,4 C 6,5 C 2,3 km/h (1 Bft)
12.12.2016 13:40 5,0 C 6,2 C 6,4 C 6,5 C 6,5 C 1,5 C 89 % 75 % 39 % 1023,8 hPa 0,0 l/m 2,4 km/h (1 Bft) SO 135 0 min 3,3 C 6,5 C 2,1 km/h (1 Bft)
12.12.2016 13:45 5,1 C 6,2 C 6,5 C 6,6 C 6,6 C 1,5 C 89 % 75 % 39 % 1023,8 hPa 0,0 l/m 1,9 km/h (1 Bft) W-NW 292 0 min 3,4 C 6,6 C 3,4 km/h (1 Bft)
12.12.2016 13:50 4,9 C 6,2 C 6,5 C 6,8 C 6,8 C 1,9 C 89 % 75 % 50 % 1023,8 hPa 0,0 l/m 1,8 km/h (1 Bft) N-NW 337 0 min 3,2 C 6,8 C 2,4 km/h (1 Bft)
12.12.2016 13:55 4,9 C 6,2 C 6,4 C 7,0 C 7,0 C 2,1 C 89 % 75 % 55 % 1023,8 hPa 0,0 l/m 1,9 km/h (1 Bft) N-NW 337 0 min 3,2 C 7,0 C 3,9 km/h (1 Bft)
12.12.2016 14:00 4,8 C 6,2 C 6,4 C 7,2 C 7,2 C 2,4 C 88 % 75 % 63 % 1024,2 hPa 0,0 l/m 2,4 km/h (1 Bft) NO 45 0 min 3,0 C 7,2 C 1,6 km/h (1 Bft)
12.12.2016 14:05 4,9 C 6,2 C 6,4 C 7,3 C 7,3 C 2,4 C 89 % 75 % 63 % 1024,2 hPa 0,0 l/m 2,3 km/h (1 Bft) N-NW 337 0 min 3,2 C 7,3 C 4,0 km/h (1 Bft)
12.12.2016 14:10 4,9 C 6,2 C 6,4 C 7,3 C 7,3 C 2,4 C 89 % 75 % 63 % 1024,2 hPa 0,0 l/m 1,1 km/h (1 Bft) N 360 0 min 3,2 C 7,3 C 0,0 km/h (0 Bft)
12.12.2016 14:15 4,8 C 6,2 C 6,3 C 7,2 C 7,2 C 2,4 C 88 % 75 % 63 % 1024,2 hPa 0,0 l/m 1,3 km/h (1 Bft) NO 45 0 min 3,0 C 7,2 C 0,0 km/h (0 Bft)
12.12.2016 14:20 4,8 C 6,2 C 6,3 C 7,2 C 7,2 C 2,4 C 88 % 75 % 63 % 1024,2 hPa 0,0 l/m 1,3 km/h (1 Bft) N-NW 337 0 min 3,0 C 7,2 C 1,8 km/h (1 Bft)
12.12.2016 14:25 4,8 C 6,2 C 6,2 C 7,2 C 7,2 C 2,4 C 88 % 75 % 63 % 1024,2 hPa 0,0 l/m 0,5 km/h (0 Bft) W-NW 292 0 min 3,0 C 7,2 C 0,0 km/h (0 Bft)
12.12.2016 14:30 4,8 C 6,2 C 6,2 C 7,1 C 7,1 C 2,3 C 88 % 75 % 61 % 1024,2 hPa 0,0 l/m 0,5 km/h (0 Bft) N-NW 337 0 min 3,0 C 7,1 C 2,1 km/h (1 Bft)
12.12.2016 14:35 4,8 C 6,2 C 6,3 C 7,0 C 7,0 C 2,2 C 88 % 76 % 58 % 1024,2 hPa 0,0 l/m 0,5 km/h (0 Bft) N-NW 337 0 min 3,0 C 7,0 C 0,0 km/h (0 Bft)
12.12.2016 14:40 4,8 C 6,2 C 6,3 C 6,8 C 6,8 C 2,0 C 88 % 76 % 53 % 1024,2 hPa 0,0 l/m 0,5 km/h (0 Bft) W-SW 247 0 min 3,0 C 6,8 C 0,0 km/h (0 Bft)
12.12.2016 14:45 4,8 C 6,2 C 6,0 C 6,7 C 6,7 C 1,9 C 88 % 76 % 50 % 1024,2 hPa 0,0 l/m 0,2 km/h (0 Bft) W 270 0 min 3,0 C 6,7 C 0,0 km/h (0 Bft)
12.12.2016 14:50 4,8 C 6,2 C 6,0 C 6,5 C 6,5 C 1,7 C 88 % 76 % 45 % 1024,2 hPa 0,0 l/m 0,0 km/h (0 Bft) W 270 0 min 3,0 C 6,5 C 0,0 km/h (0 Bft)
12.12.2016 14:55 4,7 C 6,2 C 6,0 C 6,4 C 6,4 C 1,7 C 88 % 76 % 45 % 1024,2 hPa 0,0 l/m 0,0 km/h (0 Bft) N 360 0 min 2,9 C 6,4 C 0,0 km/h (0 Bft)
12.12.2016 15:00 4,7 C 6,2 C 5,9 C 6,2 C 6,2 C 1,5 C 88 % 76 % 39 % 1025,0 hPa 0,0 l/m 0,0 km/h (0 Bft) NW 315 0 min 2,9 C 6,2 C 0,0 km/h (0 Bft)
12.12.2016 15:05 4,5 C 6,2 C 5,9 C 6,2 C 6,2 C 1,7 C 88 % 76 % 45 % 1025,0 hPa 0,0 l/m 0,2 km/h (0 Bft) W-SW 247 0 min 2,7 C 6,2 C 0,0 km/h (0 Bft)
12.12.2016 15:10 4,5 C 6,2 C 5,9 C 6,1 C 6,1 C 1,6 C 88 % 76 % 42 % 1025,0 hPa 0,0 l/m 0,0 km/h (0 Bft) NO 45 0 min 2,7 C 6,1 C 0,0 km/h (0 Bft)
12.12.2016 15:15 4,4 C 6,2 C 5,7 C 6,0 C 6,0 C 1,6 C 88 % 76 % 42 % 1025,0 hPa 0,0 l/m 0,2 km/h (0 Bft) N-NO 22 0 min 2,6 C 6,0 C 0,0 km/h (0 Bft)
12.12.2016 15:20 4,4 C 6,2 C 5,7 C 6,0 C 6,0 C 1,6 C 88 % 76 % 42 % 1024,6 hPa 0,0 l/m 0,2 km/h (0 Bft) O-NO 67 0 min 2,6 C 6,0 C 0,0 km/h (0 Bft)
12.12.2016 15:25 4,3 C 6,2 C 5,6 C 6,0 C 6,0 C 1,7 C 88 % 76 % 45 % 1024,6 hPa 0,0 l/m 0,0 km/h (0 Bft) W-SW 247 0 min 2,5 C 6,0 C 0,0 km/h (0 Bft)
12.12.2016 15:30 4,3 C 6,2 C 5,6 C 6,0 C 6,0 C 1,7 C 88 % 76 % 45 % 1024,6 hPa 0,0 l/m 0,2 km/h (0 Bft) N-NO 22 5 min 2,5 C 6,0 C 0,0 km/h (0 Bft)
12.12.2016 15:35 4,3 C 6,2 C 5,6 C 5,9 C 5,9 C 1,6 C 88 % 76 % 42 % 1024,6 hPa 0,0 l/m 0,6 km/h (0 Bft) N-NW 337 5 min 2,5 C 5,9 C 1,8 km/h (1 Bft)
12.12.2016 15:40 4,3 C 6,2 C 5,7 C 5,9 C 5,9 C 1,6 C 88 % 76 % 42 % 1024,8 hPa 0,0 l/m 0,6 km/h (0 Bft) NO 45 5 min 2,5 C 5,9 C 2,1 km/h (1 Bft)
12.12.2016 15:45 4,3 C 6,2 C 5,6 C 5,8 C 5,8 C 1,5 C 88 % 76 % 39 % 1024,8 hPa 0,0 l/m 1,0 km/h (0 Bft) O-NO 67 5 min 2,5 C 5,8 C 7,6 km/h (2 Bft)
12.12.2016 15:50 4,1 C 6,2 C 5,5 C 5,7 C 5,7 C 1,6 C 88 % 76 % 0 % 1024,8 hPa 0,0 l/m 1,9 km/h (1 Bft) O-NO 67 0 min 2,3 C 5,7 C 3,9 km/h (1 Bft)
12.12.2016 15:55 3,9 C 6,1 C 5,2 C 5,6 C 5,6 C 1,7 C 88 % 76 % 0 % 1024,8 hPa 0,0 l/m 2,7 km/h (1 Bft) O-NO 67 0 min 2,1 C 5,6 C 1,8 km/h (1 Bft)
12.12.2016 16:00 3,9 C 6,1 C 5,1 C 5,4 C 5,4 C 1,5 C 88 % 76 % 0 % 1025,4 hPa 0,0 l/m 1,6 km/h (1 Bft) S 180 0 min 2,1 C 5,4 C 0,0 km/h (0 Bft)
12.12.2016 16:05 3,7 C 6,1 C 5,0 C 5,3 C 5,3 C 1,6 C 88 % 76 % 0 % 1025,4 hPa 0,0 l/m 0,6 km/h (0 Bft) O-NO 67 0 min 1,9 C 5,3 C 4,7 km/h (1 Bft)
12.12.2016 16:10 3,6 C 6,1 C 4,8 C 5,2 C 5,2 C 1,6 C 87 % 77 % 0 % 1025,4 hPa 0,0 l/m 1,6 km/h (1 Bft) O-NO 67 0 min 1,6 C 5,2 C 4,5 km/h (1 Bft)
12.12.2016 16:15 3,3 C 6,1 C 4,5 C 4,7 C 4,7 C 1,4 C 87 % 77 % 0 % 1025,4 hPa 0,0 l/m 3,1 km/h (1 Bft) NO 45 0 min 1,3 C 4,7 C 4,0 km/h (1 Bft)
12.12.2016 16:20 3,3 C 6,1 C 4,5 C 4,3 C 4,3 C 1,0 C 87 % 77 % 0 % 1025,5 hPa 0,0 l/m 3,4 km/h (1 Bft) NO 45 0 min 1,3 C 4,3 C 4,0 km/h (1 Bft)
12.12.2016 16:25 3,0 C 6,1 C 4,3 C 4,1 C 4,1 C 1,1 C 87 % 78 % 0 % 1025,5 hPa 0,0 l/m 3,1 km/h (1 Bft) O-NO 67 0 min 1,1 C 4,1 C 0,0 km/h (0 Bft)
12.12.2016 16:30 3,1 C 6,2 C 4,3 C 4,1 C 4,1 C 1,0 C 87 % 78 % 0 % 1025,5 hPa 0,0 l/m 1,9 km/h (1 Bft) N-NW 337 0 min 1,2 C 4,1 C 0,0 km/h (0 Bft)
12.12.2016 16:35 2,9 C 6,2 C 4,3 C 4,0 C 4,0 C 1,1 C 87 % 77 % 0 % 1025,5 hPa 0,0 l/m 0,3 km/h (0 Bft) N 360 0 min 1,0 C 4,0 C 0,0 km/h (0 Bft)
12.12.2016 16:40 2,8 C 6,2 C 4,1 C 4,0 C 4,0 C 1,2 C 87 % 78 % 0 % 1025,9 hPa 0,0 l/m 0,6 km/h (0 Bft) N-NO 22 0 min 0,9 C 4,0 C 2,3 km/h (1 Bft)
12.12.2016 16:45 2,8 C 6,2 C 4,0 C 4,0 C 4,0 C 1,2 C 87 % 77 % 0 % 1025,9 hPa 0,0 l/m 0,8 km/h (0 Bft) O-NO 67 0 min 0,9 C 4,0 C 2,3 km/h (1 Bft)
12.12.2016 16:50 2,7 C 6,2 C 4,0 C 4,0 C 4,0 C 1,3 C 87 % 77 % 0 % 1025,9 hPa 0,0 l/m 1,3 km/h (1 Bft) O-NO 67 0 min 0,8 C 4,0 C 2,6 km/h (1 Bft)
12.12.2016 16:55 2,7 C 6,2 C 4,0 C 4,0 C 4,0 C 1,3 C 87 % 77 % 0 % 1025,9 hPa 0,0 l/m 1,9 km/h (1 Bft) O-NO 67 0 min 0,8 C 4,0 C 3,2 km/h (1 Bft)
12.12.2016 17:00 2,7 C 6,2 C 4,0 C 4,0 C 4,0 C 1,3 C 87 % 77 % 0 % 1026,2 hPa 0,0 l/m 2,4 km/h (1 Bft) O-NO 67 0 min 0,8 C 4,0 C 2,4 km/h (1 Bft)
12.12.2016 17:10 2,6 C 6,2 C 3,9 C 3,3 C 3,3 C 0,7 C 87 % 77 % 0 % 1026,2 hPa 0,0 l/m 3,5 km/h (1 Bft) N-NO 22 0 min 0,7 C 3,3 C 2,6 km/h (1 Bft)
12.12.2016 17:15 2,5 C 6,2 C 3,9 C 3,4 C 3,4 C 0,9 C 87 % 77 % 0 % 1026,2 hPa 0,0 l/m 2,9 km/h (1 Bft) NO 45 0 min 0,6 C 3,4 C 4,3 km/h (1 Bft)
12.12.2016 17:20 2,4 C 6,0 C 3,8 C 3,4 C 3,4 C 1,0 C 87 % 77 % 0 % 1026,2 hPa 0,0 l/m 2,9 km/h (1 Bft) O-NO 67 0 min 0,5 C 3,4 C 4,0 km/h (1 Bft)
12.12.2016 17:25 2,5 C 6,0 C 3,6 C 3,1 C 3,1 C 0,6 C 87 % 78 % 0 % 1026,2 hPa 0,0 l/m 3,4 km/h (1 Bft) O-NO 67 0 min 0,6 C 3,1 C 2,9 km/h (1 Bft)
12.12.2016 17:30 2,3 C 6,0 C 3,7 C 3,2 C 3,2 C 0,9 C 87 % 78 % 0 % 1026,2 hPa 0,0 l/m 2,9 km/h (1 Bft) O-NO 67 0 min 0,4 C 3,2 C 1,9 km/h (1 Bft)
12.12.2016 17:35 2,3 C 6,0 C 3,6 C 3,2 C 3,2 C 0,9 C 87 % 78 % 0 % 1026,2 hPa 0,0 l/m 2,1 km/h (1 Bft) NO 45 0 min 0,4 C 3,2 C 1,8 km/h (1 Bft)
12.12.2016 17:40 2,3 C 6,0 C 3,6 C 3,2 C 3,2 C 0,9 C 87 % 78 % 0 % 1026,5 hPa 0,0 l/m 1,9 km/h (1 Bft) O-NO 67 0 min 0,4 C 3,2 C 1,9 km/h (1 Bft)
12.12.2016 17:45 2,2 C 6,0 C 3,5 C 3,1 C 3,1 C 0,9 C 87 % 77 % 0 % 1026,5 hPa 0,0 l/m 2,3 km/h (1 Bft) O-NO 67 0 min 0,3 C 3,1 C 4,7 km/h (1 Bft)
12.12.2016 17:50 2,0 C 6,0 C 3,4 C 2,8 C 2,8 C 0,8 C 87 % 77 % 0 % 1026,5 hPa 0,0 l/m 3,1 km/h (1 Bft) O-NO 67 0 min 0,1 C 2,8 C 4,3 km/h (1 Bft)
12.12.2016 17:55 2,0 C 6,0 C 3,3 C 2,2 C 2,2 C 0,2 C 87 % 78 % 0 % 1026,5 hPa 0,0 l/m 3,7 km/h (1 Bft) O-NO 67 0 min 0,1 C 2,2 C 4,2 km/h (1 Bft)
12.12.2016 18:00 1,9 C 6,0 C 3,2 C 2,3 C 2,3 C 0,4 C 87 % 78 % 0 % 1026,6 hPa 0,0 l/m 3,5 km/h (1 Bft) O-NO 67 0 min -0,0 C 2,3 C 3,9 km/h (1 Bft)
12.12.2016 18:05 1,8 C 6,0 C 3,2 C 2,3 C 2,3 C 0,5 C 87 % 78 % 0 % 1026,6 hPa 0,0 l/m 3,4 km/h (1 Bft) NO 45 0 min -0,1 C 2,3 C 3,7 km/h (1 Bft)
12.12.2016 18:10 1,9 C 6,1 C 3,2 C 2,3 C 2,3 C 0,4 C 87 % 78 % 0 % 1026,6 hPa 0,0 l/m 3,1 km/h (1 Bft) O-NO 67 0 min -0,0 C 2,3 C 2,4 km/h (1 Bft)
12.12.2016 18:15 1,7 C 6,1 C 3,1 C 2,4 C 2,4 C 0,7 C 87 % 78 % 0 % 1026,6 hPa 0,0 l/m 2,9 km/h (1 Bft) N-NO 22 0 min -0,2 C 2,4 C 0,0 km/h (0 Bft)
12.12.2016 18:20 1,7 C 6,1 C 3,1 C 2,5 C 2,5 C 0,8 C 87 % 78 % 0 % 1027,0 hPa 0,0 l/m 1,8 km/h (1 Bft) N 360 0 min -0,2 C 2,5 C 0,0 km/h (0 Bft)
12.12.2016 18:25 1,6 C 6,1 C 3,0 C 2,4 C 2,4 C 0,8 C 87 % 78 % 0 % 1027,0 hPa 0,0 l/m 0,0 km/h (0 Bft) O-NO 67 0 min -0,3 C 2,4 C 0,0 km/h (0 Bft)
12.12.2016 18:30 1,6 C 6,0 C 3,1 C 2,4 C 2,4 C 0,8 C 87 % 78 % 0 % 1027,0 hPa 0,0 l/m 0,0 km/h (0 Bft) O-NO 67 0 min -0,3 C 2,4 C 0,0 km/h (0 Bft)
12.12.2016 18:35 1,7 C 6,0 C 3,1 C 2,5 C 2,5 C 0,8 C 87 % 78 % 0 % 1027,0 hPa 0,0 l/m 0,0 km/h (0 Bft) N-NO 22 0 min -0,2 C 2,5 C 0,0 km/h (0 Bft)
12.12.2016 18:40 1,7 C 6,0 C 3,1 C 2,5 C 2,5 C 0,8 C 87 % 77 % 0 % 1027,1 hPa 0,0 l/m 0,2 km/h (0 Bft) O-NO 67 0 min -0,2 C 2,5 C 3,2 km/h (1 Bft)
12.12.2016 18:45 1,6 C 6,0 C 2,9 C 2,4 C 2,4 C 0,8 C 87 % 77 % 0 % 1027,1 hPa 0,0 l/m 0,8 km/h (0 Bft) O-NO 67 0 min -0,3 C 2,4 C 2,4 km/h (1 Bft)
12.12.2016 18:50 1,5 C 6,0 C 2,8 C 2,3 C 2,3 C 0,8 C 87 % 77 % 0 % 1027,1 hPa 0,0 l/m 1,1 km/h (1 Bft) O 90 0 min -0,4 C 2,3 C 2,1 km/h (1 Bft)
12.12.2016 18:55 1,4 C 6,0 C 2,7 C 2,2 C 2,2 C 0,8 C 87 % 78 % 0 % 1027,1 hPa 0,0 l/m 1,3 km/h (1 Bft) O-NO 67 0 min -0,5 C 2,2 C 0,0 km/h (0 Bft)
12.12.2016 19:00 1,4 C 6,0 C 2,7 C 2,0 C 2,0 C 0,6 C 87 % 78 % 0 % 1027,1 hPa 0,0 l/m 0,8 km/h (0 Bft) NO 45 0 min -0,5 C 2,0 C 0,0 km/h (0 Bft)
12.12.2016 19:05 1,3 C 6,0 C 2,5 C 1,9 C 1,9 C 0,6 C 87 % 78 % 0 % 1027,1 hPa 0,0 l/m 0,6 km/h (0 Bft) O-NO 67 0 min -0,6 C 1,9 C 2,6 km/h (1 Bft)
12.12.2016 19:06 1,3 C 6,0 C 2,5 C 1,9 C 1,9 C 0,6 C 87 % 78 % 0 % 1027,1 hPa 0,0 l/m 1,6 km/h (1 Bft) NO 45 0 min -0,6 C 1,9 C 2,6 km/h (1 Bft)
12.12.2016 19:11 1,2 C 6,0 C 2,4 C 1,9 C 1,9 C 0,7 C 87 % 78 % 0 % 1027,1 hPa 0,0 l/m 1,8 km/h (1 Bft) O-SO 112 0 min -0,7 C 1,9 C 0,0 km/h (0 Bft)
12.12.2016 19:16 1,2 C 6,0 C 2,4 C 1,9 C 1,9 C 0,7 C 87 % 77 % 0 % 1027,1 hPa 0,0 l/m 0,6 km/h (0 Bft) O-SO 112 0 min -0,7 C 1,9 C 0,0 km/h (0 Bft)
12.12.2016 19:21 1,2 C 6,0 C 2,4 C 1,8 C 1,8 C 0,6 C 87 % 77 % 0 % 1027,1 hPa 0,0 l/m 0,0 km/h (0 Bft) NO 45 0 min -0,7 C 1,8 C 0,0 km/h (0 Bft)
12.12.2016 19:26 1,1 C 5,9 C 2,4 C 1,8 C 1,8 C 0,7 C 87 % 77 % 0 % 1027,1 hPa 0,0 l/m 0,2 km/h (0 Bft) NO 45 0 min -0,8 C 1,8 C 1,9 km/h (1 Bft)
12.12.2016 19:31 1,2 C 5,9 C 2,4 C 1,9 C 1,9 C 0,7 C 87 % 77 % 0 % 1027,1 hPa 0,0 l/m 1,4 km/h (1 Bft) O-NO 67 0 min -0,7 C 1,9 C 2,4 km/h (1 Bft)
12.12.2016 19:36 1,2 C 5,9 C 2,5 C 1,9 C 1,9 C 0,7 C 87 % 77 % 0 % 1027,1 hPa 0,0 l/m 1,6 km/h (1 Bft) O-NO 67 0 min -0,7 C 1,9 C 0,0 km/h (0 Bft)
12.12.2016 19:41 1,1 C 5,9 C 2,5 C 2,0 C 2,0 C 0,9 C 88 % 76 % 0 % 1027,1 hPa 0,0 l/m 0,6 km/h (0 Bft) NO 45 0 min -0,7 C 2,0 C 0,0 km/h (0 Bft)
12.12.2016 19:46 1,2 C 5,9 C 2,5 C 2,0 C 2,0 C 0,8 C 88 % 76 % 0 % 1027,1 hPa 0,0 l/m 0,2 km/h (0 Bft) NO 45 0 min -0,6 C 2,0 C 0,0 km/h (0 Bft)
12.12.2016 19:51 1,1 C 5,9 C 2,5 C 2,0 C 2,0 C 0,9 C 88 % 76 % 0 % 1027,1 hPa 0,0 l/m 0,0 km/h (0 Bft) O-NO 67 0 min -0,7 C 2,0 C 0,0 km/h (0 Bft)
12.12.2016 19:56 1,1 C 5,9 C 2,6 C 2,0 C 2,0 C 0,9 C 88 % 77 % 0 % 1027,3 hPa 0,0 l/m 0,0 km/h (0 Bft) O 90 0 min -0,7 C 2,0 C 0,0 km/h (0 Bft)
12.12.2016 20:01 1,1 C 5,9 C 2,5 C 1,9 C 1,9 C 0,8 C 88 % 76 % 0 % 1027,3 hPa 0,0 l/m 0,0 km/h (0 Bft) O-NO 67 0 min -0,7 C 1,9 C 0,0 km/h (0 Bft)
12.12.2016 20:06 1,1 C 5,9 C 2,4 C 1,8 C 1,8 C 0,7 C 88 % 76 % 0 % 1027,3 hPa 0,0 l/m 0,0 km/h (0 Bft) NO 45 0 min -0,7 C 1,8 C 0,0 km/h (0 Bft)
12.12.2016 20:11 1,1 C 5,9 C 2,3 C 1,7 C 1,7 C 0,6 C 88 % 76 % 0 % 1027,3 hPa 0,0 l/m 0,0 km/h (0 Bft) NO 45 0 min -0,7 C 1,7 C 0,0 km/h (0 Bft)
12.12.2016 20:17 1,1 C 5,9 C 2,3 C 1,7 C 1,7 C 0,6 C 88 % 76 % 0 % 1027,3 hPa 0,0 l/m 0,0 km/h (0 Bft) NO 45 0 min -0,7 C 1,7 C 0,0 km/h (0 Bft)
12.12.2016 20:20 0,9 C 5,9 C 2,1 C 1,6 C 1,6 C 0,7 C 87 % 77 % 0 % 1027,6 hPa 0,0 l/m 0,0 km/h (0 Bft) N-NO 22 0 min -1,0 C 1,6 C 0,0 km/h (0 Bft)
12.12.2016 20:25 0,8 C 5,9 C 2,1 C 1,4 C 1,4 C 0,6 C 87 % 77 % 0 % 1027,6 hPa 0,0 l/m 0,0 km/h (0 Bft) O 90 0 min -1,1 C 1,4 C 0,0 km/h (0 Bft)
12.12.2016 20:30 0,8 C 5,9 C 2,1 C 1,3 C 1,3 C 0,5 C 87 % 76 % 0 % 1027,6 hPa 0,0 l/m 0,0 km/h (0 Bft) O 90 0 min -1,1 C 1,3 C 0,0 km/h (0 Bft)
12.12.2016 20:35 0,7 C 5,7 C 2,0 C 1,2 C 1,2 C 0,5 C 87 % 76 % 0 % 1027,6 hPa 0,0 l/m 0,0 km/h (0 Bft) O 90 0 min -1,2 C 1,2 C 0,0 km/h (0 Bft)
12.12.2016 20:40 0,7 C 5,7 C 2,0 C 1,1 C 1,1 C 0,4 C 87 % 77 % 0 % 1027,1 hPa 0,0 l/m 0,0 km/h (0 Bft) O 90 0 min -1,2 C 1,1 C 0,0 km/h (0 Bft)
12.12.2016 20:45 0,7 C 5,7 C 1,9 C 1,1 C 1,1 C 0,4 C 87 % 77 % 0 % 1027,1 hPa 0,0 l/m 0,0 km/h (0 Bft) O 90 0 min -1,2 C 1,1 C 0,0 km/h (0 Bft)
12.12.2016 20:50 0,7 C 5,7 C 1,8 C 1,1 C 1,1 C 0,4 C 87 % 77 % 0 % 1027,1 hPa 0,0 l/m 0,0 km/h (0 Bft) O 90 0 min -1,2 C 1,1 C 0,0 km/h (0 Bft)
12.12.2016 20:55 0,7 C 5,8 C 1,9 C 1,1 C 1,1 C 0,4 C 87 % 77 % 0 % 1027,1 hPa 0,0 l/m 0,0 km/h (0 Bft) N-NW 337 0 min -1,2 C 1,1 C 0,0 km/h (0 Bft)
12.12.2016 21:00 0,6 C 5,8 C 1,9 C 1,1 C 1,1 C 0,5 C 87 % 76 % 0 % 1027,2 hPa 0,0 l/m 0,0 km/h (0 Bft) N-NW 337 0 min -1,3 C 1,1 C 0,0 km/h (0 Bft)
12.12.2016 21:05 0,5 C 5,8 C 1,7 C 1,1 C 1,1 C 0,6 C 87 % 77 % 0 % 1027,2 hPa 0,0 l/m 0,0 km/h (0 Bft) N-NW 337 0 min -1,4 C 1,1 C 0,0 km/h (0 Bft)
12.12.2016 21:10 0,4 C 5,8 C 1,6 C 1,0 C 1,0 C 0,6 C 87 % 77 % 0 % 1027,2 hPa 0,0 l/m 0,0 km/h (0 Bft) O-NO 67 0 min -1,5 C 1,0 C 0,0 km/h (0 Bft)
12.12.2016 21:15 0,4 C 5,8 C 1,7 C 0,9 C 0,9 C 0,5 C 87 % 77 % 0 % 1027,2 hPa 0,0 l/m 0,0 km/h (0 Bft) O-NO 67 0 min -1,5 C 0,9 C 0,0 km/h (0 Bft)
12.12.2016 21:20 0,4 C 5,8 C 1,5 C 0,9 C 0,9 C 0,5 C 87 % 77 % 0 % 1027,4 hPa 0,0 l/m 0,0 km/h (0 Bft) O-NO 67 0 min -1,5 C 0,9 C 0,0 km/h (0 Bft)
12.12.2016 21:25 0,4 C 5,8 C 1,4 C 0,9 C 0,9 C 0,5 C 87 % 77 % 0 % 1027,4 hPa 0,0 l/m 0,0 km/h (0 Bft) O-NO 67 0 min -1,5 C 0,9 C 0,0 km/h (0 Bft)
12.12.2016 21:30 0,3 C 5,7 C 1,5 C 0,8 C 0,8 C 0,5 C 87 % 77 % 0 % 1027,4 hPa 0,0 l/m 0,0 km/h (0 Bft) NO 45 0 min -1,6 C 0,8 C 0,0 km/h (0 Bft)
12.12.2016 21:35 0,3 C 5,7 C 1,2 C 0,5 C 0,5 C 0,2 C 87 % 77 % 0 % 1027,4 hPa 0,0 l/m 0,2 km/h (0 Bft) W 270 0 min -1,6 C 0,5 C 0,0 km/h (0 Bft)
12.12.2016 21:40 0,1 C 5,7 C 1,2 C 0,4 C 0,4 C 0,3 C 87 % 77 % 0 % 1027,4 hPa 0,0 l/m 0,2 km/h (0 Bft) NW 315 0 min -1,8 C 0,4 C 0,0 km/h (0 Bft)
12.12.2016 21:50 -0,1 C 5,7 C 0,7 C -0,1 C -0,1 C 0,0 C 87 % 77 % 0 % 1027,4 hPa 0,0 l/m 0,0 km/h (0 Bft) NO 45 0 min -2,0 C -0,1 C 0,0 km/h (0 Bft)
12.12.2016 21:55 -0,3 C 5,7 C 0,5 C -0,3 C -0,3 C 0,0 C 87 % 77 % 0 % 1027,4 hPa 0,0 l/m 0,0 km/h (0 Bft) NO 45 0 min -2,2 C -0,3 C 0,0 km/h (0 Bft)
12.12.2016 22:00 -0,4 C 5,7 C 0,5 C -0,3 C -0,3 C 0,1 C 87 % 77 % 0 % 1027,8 hPa 0,0 l/m 0,0 km/h (0 Bft) O-NO 67 0 min -2,3 C -0,3 C 0,0 km/h (0 Bft)
12.12.2016 22:05 -0,5 C 5,6 C 0,4 C -0,5 C -0,5 C 0,0 C 87 % 77 % 0 % 1027,8 hPa 0,0 l/m 0,0 km/h (0 Bft) NO 45 0 min -2,4 C -0,5 C 0,0 km/h (0 Bft)
12.12.2016 22:10 -0,6 C 5,6 C 0,3 C -0,7 C -0,8 C 0,0 C 87 % 77 % 0 % 1027,8 hPa 0,0 l/m 0,0 km/h (0 Bft) NO 45 0 min -2,5 C -0,8 C 0,0 km/h (0 Bft)
12.12.2016 22:15 -0,7 C 5,6 C 0,1 C -0,7 C -0,8 C 0,0 C 87 % 77 % 0 % 1027,8 hPa 0,0 l/m 0,0 km/h (0 Bft) O-NO 67 0 min -2,6 C -0,8 C 0,0 km/h (0 Bft)
12.12.2016 22:20 -0,8 C 5,6 C 0,0 C -0,9 C -1,0 C 0,0 C 87 % 77 % 0 % 1027,8 hPa 0,0 l/m 0,0 km/h (0 Bft) O-NO 67 0 min -2,7 C -1,0 C 0,0 km/h (0 Bft)
12.12.2016 22:25 -0,9 C 5,6 C -0,1 C -0,9 C -1,0 C 0,0 C 87 % 77 % 0 % 1027,8 hPa 0,0 l/m 0,0 km/h (0 Bft) O-NO 67 0 min -2,8 C -1,0 C 0,0 km/h (0 Bft)
12.12.2016 22:30 -1,0 C 5,6 C -0,1 C -1,1 C -1,2 C 0,0 C 87 % 77 % 0 % 1027,8 hPa 0,0 l/m 0,0 km/h (0 Bft) O-NO 67 0 min -2,9 C -1,2 C 0,0 km/h (0 Bft)
12.12.2016 22:35 -1,1 C 5,6 C -0,1 C -1,2 C -1,4 C 0,0 C 87 % 77 % 0 % 1027,8 hPa 0,0 l/m 0,0 km/h (0 Bft) W-SW 247 0 min -3,0 C -1,4 C 0,0 km/h (0 Bft)
12.12.2016 22:40 -1,1 C 5,6 C -0,1 C -1,2 C -1,3 C 0,0 C 87 % 77 % 0 % 1027,8 hPa 0,0 l/m 0,0 km/h (0 Bft) W-SW 247 0 min -3,0 C -1,3 C 0,0 km/h (0 Bft)
12.12.2016 22:45 -1,1 C 5,5 C -0,1 C -1,2 C -1,3 C 0,0 C 87 % 77 % 0 % 1027,8 hPa 0,0 l/m 0,0 km/h (0 Bft) W-SW 247 0 min -3,0 C -1,3 C 0,0 km/h (0 Bft)
12.12.2016 22:50 -1,3 C 5,5 C 0,1 C -1,2 C -1,2 C 0,1 C 87 % 77 % 0 % 1027,8 hPa 0,0 l/m 0,0 km/h (0 Bft) W-SW 247 0 min -3,2 C -1,2 C 0,0 km/h (0 Bft)
12.12.2016 22:55 -1,3 C 5,5 C 0,1 C -1,0 C -1,0 C 0,3 C 87 % 77 % 0 % 1027,8 hPa 0,0 l/m 0,0 km/h (0 Bft) O-NO 67 0 min -3,2 C -1,0 C 0,0 km/h (0 Bft)
12.12.2016 23:00 -1,3 C 5,5 C -0,1 C -1,0 C -1,0 C 0,3 C 87 % 77 % 0 % 1027,9 hPa 0,0 l/m 0,0 km/h (0 Bft) O-NO 67 0 min -3,2 C -1,0 C 0,0 km/h (0 Bft)
12.12.2016 23:05 -1,3 C 5,5 C -0,1 C -1,0 C -1,0 C 0,3 C 88 % 77 % 0 % 1027,9 hPa 0,0 l/m 0,0 km/h (0 Bft) O-NO 67 0 min -3,0 C -1,0 C 0,0 km/h (0 Bft)
12.12.2016 23:10 -1,3 C 5,5 C -0,1 C -1,0 C -1,0 C 0,3 C 87 % 77 % 0 % 1027,9 hPa 0,0 l/m 0,0 km/h (0 Bft) O-NO 67 0 min -3,2 C -1,0 C 0,0 km/h (0 Bft)
12.12.2016 23:15 -1,5 C 5,5 C -0,1 C -1,1 C -1,1 C 0,4 C 88 % 77 % 0 % 1027,9 hPa 0,0 l/m 0,0 km/h (0 Bft) O-NO 67 0 min -3,2 C -1,1 C 0,0 km/h (0 Bft)
12.12.2016 23:20 -1,5 C 5,5 C -0,1 C -1,1 C -1,1 C 0,4 C 88 % 77 % 0 % 1028,2 hPa 0,0 l/m 0,0 km/h (0 Bft) O-NO 67 0 min -3,2 C -1,1 C 0,0 km/h (0 Bft)
12.12.2016 23:25 -1,6 C 5,4 C -0,1 C -1,2 C -1,2 C 0,4 C 88 % 77 % 0 % 1028,2 hPa 0,0 l/m 0,0 km/h (0 Bft) O-NO 67 0 min -3,3 C -1,2 C 0,0 km/h (0 Bft)
12.12.2016 23:30 -1,7 C 5,4 C -0,1 C -1,1 C -1,1 C 0,6 C 88 % 77 % 0 % 1028,2 hPa 0,0 l/m 0,0 km/h (0 Bft) SW 225 0 min -3,4 C -1,1 C 0,0 km/h (0 Bft)
12.12.2016 23:35 -1,7 C 5,4 C -0,1 C -1,0 C -1,0 C 0,7 C 88 % 77 % 0 % 1028,2 hPa 0,0 l/m 0,0 km/h (0 Bft) SW 225 0 min -3,4 C -1,0 C 0,0 km/h (0 Bft)
12.12.2016 23:40 -1,7 C 5,4 C -0,1 C -1,0 C -1,0 C 0,7 C 88 % 77 % 0 % 1027,9 hPa 0,0 l/m 0,0 km/h (0 Bft) SW 225 0 min -3,4 C -1,0 C 0,0 km/h (0 Bft)
12.12.2016 23:45 -1,7 C 5,4 C -0,1 C -1,1 C -1,1 C 0,6 C 88 % 77 % 0 % 1027,9 hPa 0,0 l/m 0,0 km/h (0 Bft) W-SW 247 0 min -3,4 C -1,1 C 0,0 km/h (0 Bft)
12.12.2016 23:50 -1,7 C 5,4 C -0,1 C -1,1 C -1,1 C 0,6 C 88 % 77 % 0 % 1027,9 hPa 0,0 l/m 0,0 km/h (0 Bft) W-SW 247 0 min -3,4 C -1,1 C 0,0 km/h (0 Bft)
_ Min-Zeit 23:30 23:25 22:25 22:35 22:35 00:00 00:00 09:25 00:00 01:40 - 14:50 - - - 23:30 22:35 09:40
Minimum _ -1,7 C 5,4 C -0,1 C -1,2 C -1,4 C 0,0 C 84 % 75 % 0 % 1017,7 hPa - 0,0 km/h (0 Bft) - - - -3,4 C -1,4 C 0,0 km/h (0 Bft)
_ Max-Zeit 00:00 11:15 12:40 12:35 12:35 14:05 08:10 00:00 14:05 23:20 00:35 06:40 - - 15:30 11:05 12:35 06:05
Maximum _ 5,5 C 6,2 C 6,9 C 7,4 C 7,4 C 2,4 C 89 % 89 % 63 % 1028,2 hPa 0,7 l/m 9,5 km/h
W-SW (2 Bft)
- - 5 min 3,7 C 7,4 C 19,8 km/h
W-SW (3 Bft)
Durchschnitt _ 3,5 C 6,0 C 4,6 C 4,1 C 3,9 C 0,7 C 87 % 78 % 12 % 1022,7 hPa #4,1 l/m 3,7 km/h (1 Bft) W-SW - #20 min. 1,6 C 3,2 C 4,6 km/h (1 Bft)
2016 www.wetterstation-wechselburg.de